This demonstration page uses our WeatherBlox Daily Observations layout. Learn more.

Left ArrowRight Arrow

Hourly Observations for September 11, 2022

Temp ( °F °C ) Dew Point ( °F °C ) Humidity (%) Winds ( mph kmh ) Pressure ( in mb ) Visibility ( mi km ) Precip ( " mm )
12:15 am 00:15 Cloudy 70 21 70 21 100 100 Calm 30.21 1023 N/A 0.00 0.00
12:35 am 00:35 undefined 70 21 70 21 100 100 WNW 3 6 30.21 1023 N/A 0.00 0.00
12:55 am 00:55 undefined 70 21 70 21 100 100 Calm 30.21 1023 N/A 0.02 0.51
1:15 am 01:15 undefined 70 21 68 20 94 94 N 3 6 30.20 1023 N/A 0.00 0.00
1:35 am 01:35 undefined 68 20 68 20 100 100 Calm 30.20 1023 N/A 0.00 0.00
1:55 am 01:55 undefined 70 21 70 21 100 100 Calm 30.19 1022 N/A 0.00 0.00
2:15 am 02:15 undefined 70 21 70 21 100 100 Calm 30.18 1022 N/A 0.00 0.00
2:35 am 02:35 undefined 70 21 70 21 100 100 Calm 30.17 1022 N/A 0.00 0.00
2:55 am 02:55 Cloudy 70 21 70 21 100 100 Calm 30.17 1022 N/A 0.00 0.00
3:15 am 03:15 undefined 70 21 70 21 100 100 NE 3 6 30.16 1021 N/A 0.00 0.00
3:35 am 03:35 undefined 68 20 68 20 100 100 NE 3 6 30.15 1021 N/A 0.00 0.00
3:55 am 03:55 Cloudy 68 20 68 20 100 100 NE 5 7 30.15 1021 N/A 0.01 0.25
4:15 am 04:15 undefined 68 20 68 20 100 100 NE 3 6 30.14 1021 N/A 0.00 0.00
4:35 am 04:35 Cloudy 68 20 68 20 100 100 NE 3 6 30.14 1021 N/A 0.00 0.00
4:55 am 04:55 undefined 68 20 68 20 100 100 Calm 30.14 1021 N/A 0.00 0.00
5:15 am 05:15 undefined 68 20 68 20 100 100 Calm 30.13 1020 N/A 0.00 0.00
5:35 am 05:35 undefined 68 20 68 20 100 100 NE 3 6 30.13 1020 N/A 0.00 0.00
5:55 am 05:55 undefined 68 20 68 20 100 100 NE 3 6 30.12 1020 N/A 0.02 0.51
6:15 am 06:15 Cloudy 68 20 68 20 100 100 Calm 30.13 1020 N/A 0.01 0.25
6:35 am 06:35 Cloudy 68 20 68 20 100 100 E 6 9 30.13 1020 N/A 0.28 7.11
6:55 am 06:55 undefined 70 21 70 21 100 100 ESE 5 7 30.13 1020 N/A 0.41 10.41
7:15 am 07:15 undefined 70 21 70 21 100 100 E 5 7 30.13 1020 N/A 0.03 0.76
7:35 am 07:35 Cloudy 70 21 70 21 100 100 ENE 5 7 30.12 1020 N/A 0.04 1.02
7:55 am 07:55 Cloudy 70 21 70 21 100 100 ENE 5 7 30.12 1020 N/A 0.05 1.27
8:15 am 08:15 Cloudy 70 21 70 21 100 100 Calm 30.12 1020 N/A 0.00 0.00
8:35 am 08:35 Cloudy 70 21 70 21 100 100 ESE 6 9 30.11 1020 N/A 0.05 1.27
8:55 am 08:55 Cloudy 70 21 70 21 100 100 ESE 6 9 30.11 1020 N/A 0.06 1.52
9:15 am 09:15 Cloudy 70 21 70 21 100 100 ESE 5 7 30.11 1020 N/A 0.01 0.25
9:35 am 09:35 Cloudy 70 21 70 21 100 100 ESE 3 6 30.11 1020 N/A 0.05 1.27
9:55 am 09:55 Cloudy 70 21 70 21 100 100 E 3 6 30.10 1019 N/A 0.07 1.78
10:15 am 10:15 Cloudy 70 21 70 21 100 100 ESE 3 6 30.10 1019 N/A 0.00 0.00
10:35 am 10:35 Cloudy 70 21 70 21 100 100 Calm 30.10 1019 N/A 0.00 0.00
10:55 am 10:55 Cloudy 72 22 72 22 100 100 Calm 30.10 1019 N/A 0.05 1.27
11:15 am 11:15 Cloudy 72 22 72 22 100 100 SSE 5 7 30.09 1019 N/A 0.00 0.00
11:35 am 11:35 Cloudy 72 22 72 22 100 100 S 3 6 30.09 1019 N/A 0.00 0.00
11:55 am 11:55 Cloudy 72 22 72 22 100 100 S 3 6 30.08 1019 N/A 0.00 0.00
12:15 pm 12:15 Cloudy 73 23 72 22 94 94 S 5 7 30.08 1018 N/A 0.00 0.00
12:35 pm 12:35 Cloudy 73 23 72 22 94 94 S 5 7 30.07 1018 N/A 0.00 0.00
12:55 pm 12:55 Cloudy 73 23 72 22 94 94 Calm 30.07 1018 N/A 0.00 0.00
1:15 pm 13:15 Cloudy 75 24 73 23 94 94 Calm 30.05 1017 N/A 0.00 0.00
1:35 pm 13:35 Cloudy 73 23 73 23 100 100 S 5 7 30.05 1017 N/A 0.00 0.00
1:55 pm 13:55 undefined 77 25 73 23 89 89 SSE 5 7 30.03 1017 N/A 0.00 0.00
2:15 pm 14:15 Cloudy 77 25 73 23 89 89 S 5 7 30.03 1017 N/A 0.00 0.00
2:35 pm 14:35 undefined 77 25 73 23 89 89 Calm 30.03 1017 N/A 0.00 0.00
2:55 pm 14:55 Cloudy 79 26 73 23 84 84 S 3 6 30.00 1016 N/A 0.00 0.00
3:15 pm 15:15 Cloudy 79 26 73 23 84 84 Calm 30.00 1016 N/A 0.00 0.00
3:35 pm 15:35 Cloudy 77 25 73 23 89 89 Calm 29.99 1016 N/A 0.00 0.00
3:55 pm 15:55 undefined 79 26 73 23 84 84 Calm 29.98 1015 N/A 0.00 0.00
4:15 pm 16:15 Mostly Cloudy 79 26 73 23 84 84 Calm 29.97 1015 N/A 0.00 0.00
4:35 pm 16:35 Mostly Cloudy 81 27 73 23 79 79 Calm 29.97 1015 N/A 0.00 0.00
4:55 pm 16:55 Mostly Cloudy 79 26 73 23 84 84 Calm 29.96 1015 N/A 0.00 0.00
5:15 pm 17:15 Mostly Cloudy 79 26 73 23 84 84 SSE 3 6 29.95 1014 N/A 0.00 0.00
5:35 pm 17:35 Cloudy 79 26 73 23 84 84 Calm 29.96 1015 N/A 0.00 0.00
5:55 pm 17:55 Cloudy 79 26 73 23 84 84 Calm 29.96 1015 N/A 0.00 0.00
6:15 pm 18:15 Cloudy 79 26 73 23 84 84 Calm 29.96 1015 N/A 0.00 0.00
6:35 pm 18:35 Cloudy 77 25 73 23 89 89 NNE 3 6 29.96 1015 N/A 0.00 0.00
6:55 pm 18:55 undefined 77 25 73 23 89 89 NNE 5 7 29.96 1014 N/A 0.00 0.00
7:15 pm 19:15 Mostly Cloudy 77 25 73 23 89 89 NE 3 6 29.96 1014 N/A 0.00 0.00
7:35 pm 19:35 undefined 77 25 73 23 89 89 Calm 29.94 1014 N/A 0.00 0.00
7:55 pm 19:55 undefined 77 25 73 23 89 89 Calm 29.96 1014 N/A 0.00 0.00
8:15 pm 20:15 Mostly Cloudy 75 24 73 23 94 94 NNE 3 6 29.96 1014 N/A 0.00 0.00
8:35 pm 20:35 Cloudy 75 24 73 23 94 94 Calm 29.97 1015 N/A 0.00 0.00
8:55 pm 20:55 Mostly Cloudy 73 23 73 23 100 100 NNE 3 6 29.97 1015 N/A 0.00 0.00
9:15 pm 21:15 undefined 73 23 73 23 100 100 N 3 6 29.97 1015 N/A 0.00 0.00
9:35 pm 21:35 undefined 73 23 73 23 100 100 Calm 29.96 1014 N/A 0.00 0.00
9:55 pm 21:55 undefined 73 23 73 23 100 100 Calm 29.96 1014 N/A 0.00 0.00
10:15 pm 22:15 Mostly Cloudy 73 23 72 22 94 94 Calm 29.95 1014 N/A 0.00 0.00
10:35 pm 22:35 Cloudy 73 23 72 22 94 94 Calm 29.95 1014 N/A 0.00 0.00
10:55 pm 22:55 Cloudy 72 22 72 22 100 100 Calm 29.95 1014 N/A 0.00 0.00
11:15 pm 23:15 Mostly Cloudy 72 22 72 22 100 100 Calm 29.95 1014 N/A 0.00 0.00
11:35 pm 23:35 undefined 72 22 72 22 100 100 Calm 29.95 1014 N/A 0.00 0.00
11:55 pm 23:55 undefined 72 22 72 22 100 100 N 3 6 29.95 1014 N/A 0.00 0.00

Powered by AerisWeather